SITRO-AIS-53

operational
NORAD ID: 59776 Int'l Des: 2024-092 Owner: SITRO Country: RU
LEOCIRCULARRETROGRADESSO

About SITRO-AIS-53

Description loading...

Live Position

Loading 3D Globe...

Upcoming Passes

Altitude History

Altitude vs Time

uPlot chart will show altitude changes over time

Two-Line Element Set

1 59776U 24092D 25277.77441613 .00024438 00000-0 95693-3 0 9993
2 59776 97.6325 37.9127 0008653 336.4768 23.6073 15.25764556 76657
Epoch: Oct 4, 2025 • Age: 12 hours

Current Status

Altitude 510.8 km
Velocity 7.61 km/s
Sub-Earth Point -55.16°S, 93.68°E
Launch Date May 16, 2024
Age 1.3 years
Type other

Technical Details

Classification Payload
Mass 3.00 kg
Dry Mass 3.00 kg
Total Mass 3.00 kg
Length 0.30 m
Diameter 0.10 m
Span 0.30 m
Shape Box
Manufacturer SPUT
Bus Type Cubesat 3U
Phase Status In Orbit
Owner/State SITRO/RU

Large Constellations

Loading constellations...